Regional Weather Roundup
Issued by NWS

Home | Current Version | Previous Version | Graphics & Text | Print | Product List | Glossary On
Versions: 1 2 3 4 5 6 7 8 9 10 11 12 13 14 15 16 17 18 19 20 21 22 23 24 25 26 27 28 29 30 31 32 33 34 35 36 37 38 39 40 41 42 43 44 45 46 47 48 49 50
000
ASUS43 KFSD 221602
RWRSD

WEATHER ROUNDUP FOR SOUTH DAKOTA
NATIONAL WEATHER SERVICE SIOUX FALLS SD
1000 AM CST WED FEB 22 2017

NOTE: "FAIR" INDICATES FEW OR NO CLOUDS BELOW 12,000 FEET WITH NO
SIGNIFICANT WEATHER AND/OR OBSTRUCTIONS TO VISIBILITY.


SDZ001>005-009-010-012>017-221700-
NORTHWEST AND NORTH CENTRAL SOUTH DAKOTA

CITY           SKY/WX    TMP DP  RH WIND       PRES   REMARKS
BUFFALO          N/A     38  36  92 NW10      29.69R
FAITH            N/A     43  38  82 NW12      29.72S
MOBRIDGE       SUNNY     41  35  79 NW9       29.68R
$$

SDZ012>016-024>037-041>051-057-063-072>074-221700-
SOUTHWEST AND SOUTH CENTRAL SOUTH DAKOTA

CITY           SKY/WX    TMP DP  RH WIND       PRES   REMARKS
RAPID CTY ARPT PTSUNNY   51  27  39 NW23      29.74F
PIERRE         MOSUNNY   43  36  76 N12       29.69R
CUSTER         SUNNY     39  21  48 W10       29.78S
ELLSWORTH AFB  MOSUNNY   50  25  38 NW25G31   29.74F
PHILIP         MOSUNNY   49  38  65 NW12      29.74S
PINE RIDGE     MOSUNNY   52  28  39 NW22G28   29.80R
SPEARFISH      FAIR      45  23  42 W14       29.80R
WINNER         FAIR      56  38  50 NW25G33   29.70R
$$

SDZ004>011-016>023-039-040-221700-
NORTHEAST SOUTH DAKOTA

CITY           SKY/WX    TMP DP  RH WIND       PRES   REMARKS
ABERDEEN       CLOUDY    39  33  79 N12       29.67R
WATERTOWN      CLOUDY    46  41  82 CALM      29.59S
BROOKINGS      MOSUNNY   48  40  73 VRB3      29.59R
SISSETON         N/A     38  38 100 N14       29.62F
$$

SDZ017-020-022-023-036>040-048>070-221700-
SOUTHEAST SOUTH DAKOTA

CITY           SKY/WX    TMP DP  RH WIND       PRES   REMARKS
SIOUX FALLS    CLOUDY    52  40  63 W3        29.63R
HURON          SUNNY     46  41  82 NW8       29.63R
CHAMBERLAIN    SUNNY     53  41  64 W15       29.68S
MITCHELL       SUNNY     56  40  55 W15       29.64F
YANKTON        MOSUNNY   54  37  54 SW7       29.65S
$$

ABBREVIATIONS USED IN REMARKS
   TC - TEMPERATURE IN CELSIUS
  WCI - WIND CHILL INDEX
   HX - HEAT INDEX
  VSB - VISIBILITY





USA.gov is the U.S. government's official web portal to all federal, state and local government web resources and services.